Agassiz, British Columbia

9:35 AM PDT on April 26, 2017 (GMT -0700)
Agassiz

Weather History for CWZA - January, 2014

Change the Weather History Date:

Monday, January 20, 2014

  Actual Average Record
Temperature  
Mean Temperature 40 °F -  
Max Temperature 49 °F 44 °F - ()
Min Temperature 30 °F 33 °F - ()
Degree Days  
Heating Degree Days 26    
Moisture  
Dew Point 30 °F    
Average Humidity 59    
Maximum Humidity 87    
Minimum Humidity 36    
Precipitation  
Precipitation 0.00 in 0.25 in - ()
Sea Level Pressure  
Sea Level Pressure 30.28 in    
Wind  
Wind Speed 7 mph ()    
Max Wind Speed 23 mph    
Max Gust Speed 31 mph    
T = Trace of Precipitation, MM = Missing Value Source: Averaged Metar Reports

Daily Weather History Graph

Daily Weather History Graph

Search for Another Location

Airport or City:

Trip Planner

Search our weather history database for the weather conditions in past years. The results will help you decide how hot, cold, wet, or windy it might be!

Date:

Astronomy

Jan. 20, 2014 Rise Set
Actual Time 7:52 AM PST 4:44 PM PST
Civil Twilight 7:16 AM PST 5:20 PM PST
Nautical Twilight 6:37 AM PST 5:59 PM PST
Astronomical Twilight 5:59 AM PST 6:37 PM PST
Moon 9:54 PM PST (1/20) 9:27 AM PST (1/20)
Length of Visible Light 10h 03m
Length of Day
8h 52m
Waning Gibbous, 82% of the Moon is Illuminated
Jan 20
Waning Gibbous
Jan 23
Last Quarter
Jan 30
New
Feb 6
First Quarter
Feb 14
Full

Hourly Weather History & Observations

Time (PST) Temp. Windchill Dew Point Humidity Pressure Visibility Wind Dir Wind Speed Gust Speed Precip Events Conditions
12:00 AM 36.9 °F - 33.4 °F 87% 30.35 in - SW 2.3 mph - N/A   Unknown
1:00 AM 30.2 °F - 25.7 °F 83% 28.65 in - SSE 1.2 mph - N/A   Unknown
2:00 AM 42.1 °F 37.7 °F 31.6 °F 67% 30.34 in - NNE 6.9 mph - N/A   Unknown
3:00 AM 42.6 °F 37.8 °F 31.3 °F 64% 30.35 in - NNE 8.1 mph 19.6 mph N/A   Unknown
4:00 AM 43 °F - 31 °F 52% 30.35 in - North 4.6 mph - -  
4:00 AM 43.3 °F 40.7 °F 32.9 °F 67% 30.35 in - North 4.6 mph - N/A   Unknown
5:00 AM 42.8 °F 39.3 °F 30.7 °F 62% 30.35 in - North 5.8 mph - N/A   Unknown
6:00 AM 42.1 °F 39.2 °F 30.0 °F 62% 30.36 in - NE 4.6 mph - N/A   Unknown
7:00 AM 41.2 °F 35.0 °F 30.0 °F 65% 30.36 in - NNE 10.4 mph 19.6 mph N/A   Unknown
8:00 AM 41.7 °F 38.0 °F 29.7 °F 62% 30.36 in - NNE 5.8 mph - N/A   Unknown
9:00 AM 41.4 °F 35.2 °F 29.5 °F 63% 30.38 in - NNE 10.4 mph 23.0 mph N/A   Unknown
10:00 AM 43 °F - 29 °F 47% 30.38 in - NNE 16.1 mph - -  
10:00 AM 42.6 °F 34.9 °F 29.5 °F 60% 30.38 in - NNE 16.1 mph 24.2 mph N/A   Unknown
11:00 AM 45.9 °F 40.0 °F 30.0 °F 54% 30.37 in - NNE 12.7 mph 25.3 mph N/A   Unknown
12:00 PM 47.1 °F - 30.7 °F 53% 30.35 in - NNE 9.2 mph 23.0 mph N/A   Unknown
1:00 PM 48.6 °F - 30.6 °F 50% 30.33 in - NE 11.5 mph 20.7 mph N/A   Unknown
2:00 PM 47.3 °F - 30.4 °F 52% 30.31 in - NE 16.1 mph 25.3 mph N/A   Unknown
3:00 PM 49.3 °F - 30.7 °F 49% 30.31 in - NNE 15.0 mph 24.2 mph N/A   Unknown
4:00 PM 49 °F - 30 °F 36% 30.31 in - North 5.8 mph - -  
4:00 PM 48.6 °F - 30.4 °F 50% 30.31 in - North 5.8 mph 19.6 mph N/A   Unknown
5:00 PM 45.5 °F 44.2 °F 29.7 °F 54% 30.32 in - NNE 3.5 mph - N/A   Unknown
6:00 PM 44.2 °F 41.8 °F 30.4 °F 58% 30.32 in - North 4.6 mph - N/A   Unknown
7:00 PM 42.4 °F 39.6 °F 29.8 °F 61% 30.32 in - NNE 4.6 mph - N/A   Unknown
8:00 PM 42.3 °F 35.1 °F 29.7 °F 61% 30.32 in - NE 13.8 mph 27.6 mph N/A   Unknown
9:00 PM 42.4 °F 36.5 °F 29.3 °F 60% 30.33 in - NNE 10.4 mph 23.0 mph N/A   Unknown
10:00 PM 42 °F - 29 °F 50% 30.32 in - NE 23.0 mph - -  
10:00 PM 41.5 °F 31.9 °F 29.5 °F 62% 30.32 in - NE 23.0 mph 31.1 mph N/A   Unknown
11:00 PM 42.3 °F 33.3 °F 29.1 °F 60% 30.32 in - NE 20.7 mph 31.1 mph N/A   Unknown